Location: Newark
(21.1200°N, 73.4000°E)
Time: 15:48:40
(UTC+00:00)

SR - Pass Details

Date: 29 January 2020
Orbit: 575 x 881 km, 66.7° (Epoch: 17 February)

Event Time Altitude Azimuth Distance (km) Brightness Sun altitude
Rises 03:00:42 0° 320° (NW) 3,205 ? 15.5°
Reaches altitude 10° 03:03:32 10° 308° (NW) 2,220 ? 16.1°
Maximum altitude 03:07:33 24° 254° (WSW) 1,397 ? 16.9°
Drops below altitude 10° 03:11:19 10° 200° (SSW) 2,056 ? 17.7°
Sets 03:13:51 0° 186° (S) 2,915 ? 18.2°
